FW6834 Weather Reports


Display with metric or nautical units.
time (UTC)temp
F
wind
direction
speed
MPH
gust
MPH
rain 1hr
in
rain 24hr
in
rain mn
in
humidity
%
barometer
mb
20260504140103 69 226 12.0 20.0 0.00 0.00 0.00 50 1048.1
20260504100103 65 210 7.0 14.0 0.00 0.00 0.00 50 1048.4
20260504081603 67 262 9.0 15.0 0.00 0.00 0.00 45 1049.4
20260504050103 70 161 7.0 15.0 0.00 0.00 0.00 40 1051.5
20260504044602 70 210 12.0 17.0 0.00 0.00 0.00 39 1051.5
20260504043102 70 290 10.0 14.0 0.00 0.00 0.00 39 1051.5
20260504041602 71 216 12.0 20.0 0.00 0.00 0.00 38 1051.5
20260504040103 71 212 7.0 16.0 0.00 0.00 0.00 38 1051.8
20260504034602 72 167 11.0 14.0 0.00 0.00 0.00 37 1051.8
20260504033102 72 201 12.0 14.0 0.00 0.00 0.00 36 1051.8
20260504031603 73 208 13.0 16.0 0.00 0.00 0.00 36 1051.8
20260504024602 74 172 7.0 12.0 0.00 0.00 0.00 35 1051.8
20260504023602 74 176 9.0 16.0 0.00 0.00 0.00 35 1051.5
20260504013602 76 194 13.0 17.0 0.00 0.00 0.00 31 1051.5
20260504010603 77 231 14.0 17.0 0.00 0.00 0.00 29 1051.1
20260504005102 79 191 14.0 14.0 0.00 0.00 0.00 27 1051.5
20260504002102 81 123 6.0 14.0 0.00 0.00 0.00 25 1051.5
20260504000602 83 182 8.0 13.0 0.00 0.00 0.00 24 1051.8
20260503235102 83 13 10.0 16.0 0.00 0.00 0.00 24 1051.8
20260503233602 83 184 13.0 13.0 0.00 0.00 0.00 22 1051.8
20260503232602 83 173 8.0 16.0 0.00 0.00 0.00 23 1051.8
20260503231102 84 277 11.0 15.0 0.00 0.00 0.00 23 1051.8
20260503225602 84 273 11.0 16.0 0.00 0.00 0.00 22 1051.8
20260503224103 86 208 6.0 11.0 0.00 0.00 0.00 22 1052.2
20260503222603 85 257 9.0 14.0 0.00 0.00 0.00 22 1052.2
20260503221102 85 189 8.0 16.0 0.00 0.00 0.00 22 1052.5
20260503215602 85 233 11.0 18.0 0.00 0.00 0.00 22 1052.5
20260503214102 86 142 9.0 14.0 0.00 0.00 0.00 23 1052.8
20260503212602 86 301 6.0 15.0 0.00 0.00 0.00 22 1052.8
20260503211102 86 224 7.0 14.0 0.00 0.00 0.00 20 1053.2
20260503205602 86 201 8.0 16.0 0.00 0.00 0.00 21 1053.5
20260503202602 86 209 11.0 13.0 0.00 0.00 0.00 21 1053.8
20260503201102 87 277 7.0 13.0 0.00 0.00 0.00 22 1054.2
20260503195602 86 176 10.0 15.0 0.00 0.00 0.00 22 1054.5
20260503194102 86 184 7.0 13.0 0.00 0.00 0.00 21 1054.9
20260503191602 87 249 8.0 14.0 0.00 0.00 0.00 20 1055.2
20260503183102 86 227 9.0 15.0 0.00 0.00 0.00 25 1055.5
20260503181602 86 273 5.0 13.0 0.00 0.00 0.00 26 1055.9
20260503174603 85 242 9.0 9.0 0.00 0.00 0.00 28 1056.2
20260503171603 84 167 8.0 10.0 0.00 0.00 0.00 29 1056.9